Home > Weather > Split > Past weeks

Flag for Croatia Past Weather in Split, Croatia — Yesterday and Last 2 Weeks

Now
79 °F

Clear.


Feels Like: 82 °F
Forecast: 73 / 88 °F
Wind: 1 mph from West

Location: Split/Marjan

Current Time: Jul 31, 2016 at 2:38:45 AM

Latest Report: Jul 30, 2016 at 11:00 PM


Visibility: 13 mi

Pressure: 29.90 "Hg

Humidity: 69%

Dew Point: 68 °F

Location of SplitLocation

Past Weather in Split — Graph

°F

Split Temperature Yesterday

Maximum temperature yesterday: 92 °F (at 2:00 PM)
Minimum temperature yesterday: 76 °F (at 5:00 AM)
Average temperature yesterday: 84 °F

High & Low Weather Summary for the Past Weeks

 TemperatureHumidityPressure
High93 °F (Jul 24, 2:00 PM)84% (Jul 28, 6:00 AM)30.07 "Hg (Jul 28, 6:00 AM)
Low66 °F (Jul 16, 11:00 PM)27% (Jul 22, 2:00 PM)29.76 "Hg (Jul 15, 11:00 PM)
Average82 °F45%29.94 "Hg
* Reported Jul 15 11:00 PM — Jul 30 11:00 PM, Split, Weather by CustomWeather, © 2016

Note: Actual official high and low records may vary slightly from our data, if they occured in-between our weather recording intervals... More about our weather records

Advertising

Split Weather History for the Previous 24 Hours

Scroll right to see more
 ConditionsComfort  
Time TempWeatherWind HumidityBarometerVisibility
11:00 PM
Sat, Jul 30
79 °FClear.1 mph69%29.90 "Hg12 mi
10:00 PM81 °FPassing clouds.1 mph68%29.91 "Hg12 mi
9:00 PM81 °FPassing clouds.1 mph69%29.90 "Hg19 mi
8:00 PM82 °FPassing clouds.2 mph67%29.90 "Hg25 mi
5:00 PM87 °FPassing clouds.3 mph56%29.91 "Hg25 mi
4:00 PM91 °FPassing clouds.2 mph44%29.91 "Hg22 mi
3:00 PM92 °FPassing clouds.3 mph36%29.91 "Hg22 mi
2:00 PM92 °FPassing clouds.3 mph35%29.92 "Hg19 mi
1:00 PM91 °FPassing clouds.2 mph37%29.93 "Hg12 mi
12:00 PM90 °FPassing clouds.1 mph38%29.93 "Hg9 mi
11:00 AM88 °FSunny.1 mph41%29.93 "Hg7 mi
10:00 AMN/APassing clouds.N/AN/AN/A2 mi
9:00 AM83 °FSunny.1 mph59%29.94 "Hg12 mi
8:00 AM80 °FSunny.No wind63%29.94 "Hg16 mi
7:00 AM79 °FSunny.3 mph55%29.93 "Hg22 mi
6:00 AM77 °FSunny.1 mph64%29.92 "Hg19 mi
5:00 AM76 °FClear.1 mph67%29.93 "Hg16 mi
2:00 AM78 °FClear.1 mph70%29.92 "Hg12 mi
Weather by CustomWeather, © 2016

See weather overviewHow to use our weather pages